This demonstration page uses our WeatherBlox Daily Observations layout. Learn more.

Left ArrowRight Arrow

39.08367, -84.50855

Hourly Observations for December 14, 2019

Temp ( °F °C ) Dew Point ( °F °C ) Humidity (%) Winds ( mph kmh ) Pressure ( in mb ) Visibility ( mi km ) Precip ( " mm )
12:53 am 00:53 Cloudy 43 6.1 41 5 93 93 N 7 11 29.74 1007 9 14 0.03 0.76
1:23 am 01:23 Cloudy 43 6.1 40 4.4 89 89 N 12 19 29.74 1007 7 11 N/A
1:36 am 01:36 Cloudy 43 6.1 40 4.4 89 89 N 12 19 29.73 1007 7 11 N/A
1:53 am 01:53 Cloudy 42 5.6 40 4.4 92 92 N 13 20 29.71 1006 8 13 N/A
2:07 am 02:07 Cloudy with Light Rain 42 5.6 40 4.4 92 92 N 7 11 29.74 1007 9 14 0.00 0.00
2:53 am 02:53 Cloudy with Light Rain 41 5 39 3.9 93 93 N 12 19 29.71 1006 8 13 0.00 0.00
3:45 am 03:45 Cloudy with Light Rain 40 4.4 38 3.3 93 93 NNW 9 15 29.72 1006 7 11 0.02 0.51
3:53 am 03:53 Cloudy with Light Rain 40 4.4 38 3.3 93 93 NNW 7 11 29.70 1006 7 11 0.02 0.51
4:00 am 04:00 Cloudy with Light Rain 40 4.4 38 3.3 93 93 N 7 11 29.72 1006 9 14 0.01 0.25
4:17 am 04:17 Cloudy with Light Rain 40 4.4 38 3.3 93 93 N 7 11 29.71 1006 8 13 0.01 0.25
4:53 am 04:53 Cloudy with Light Rain 40 4.4 38 3.3 93 93 NNW 7 11 29.68 1005 10 16 0.02 0.51
5:06 am 05:06 Cloudy with Light Rain 40 4.4 38 3.3 93 93 NNW 6 9 29.70 1006 10 16 0.00 0.00
5:53 am 05:53 Cloudy with Light Rain 40 4.4 38 3.3 93 93 NW 5 7 29.68 1005 9 14 0.01 0.25
6:05 am 06:05 Cloudy with Light Rain 40 4.4 38 3.3 93 93 WNW 3 6 29.69 1005 10 16 0.00 0.00
6:53 am 06:53 Cloudy with Light Rain 40 4.4 38 3.3 93 93 VRB 3 6 29.68 1005 8 13 0.01 0.25
7:53 am 07:53 Cloudy with Light Rain 40 4.4 38 3.3 93 93 WNW 5 7 29.68 1005 9 14 0.01 0.25
8:43 am 08:43 Cloudy 40 4.4 37 2.8 89 89 W 6 9 29.70 1006 10 16 0.01 0.25
8:53 am 08:53 Cloudy 40 4.4 37 2.8 89 89 W 6 9 29.69 1005 10 16 0.01 0.25
9:53 am 09:53 Cloudy with Light Rain 40 4.4 38 3.3 93 93 W 6 9 29.70 1006 5 8 0.00 0.00
10:00 am 10:00 Cloudy with Light Rain 40 4.4 38 3.3 93 93 WNW 6 9 29.72 1006 5 8 0.00 0.00
10:09 am 10:09 Cloudy with Light Rain 40 4.4 38 3.3 93 93 W 6 9 29.72 1006 6 10 0.01 0.25
10:23 am 10:23 Cloudy with Light Rain 41 5 38 3.3 89 89 W 6 9 29.72 1006 7 11 0.01 0.25
10:53 am 10:53 Cloudy 41 5 39 3.9 93 93 W 7 11 29.70 1006 10 16 0.01 0.25
11:53 am 11:53 Cloudy 43 6.1 39 3.9 86 86 W 6 9 29.70 1006 10 16 N/A
12:53 pm 12:53 Cloudy 43 6.1 39 3.9 86 86 W 7 11 29.69 1006 10 16 N/A
1:53 pm 13:53 Cloudy 45 7.2 38 3.3 77 77 W 8 13 29.69 1005 10 16 N/A
2:53 pm 14:53 Cloudy 45 7.2 37 2.8 74 74 W 10 17 29.70 1006 10 16 N/A
3:09 pm 15:09 Cloudy 45 7.2 37 2.8 74 74 WSW 13 20 29.71 1006 10 16 N/A
3:53 pm 15:53 Cloudy 44 6.7 36 2.2 73 73 W 12 19 29.72 1006 10 16 N/A
4:53 pm 16:53 Cloudy 43 6.1 36 2.2 76 76 WSW 8 13 29.75 1007 10 16 N/A
5:53 pm 17:53 Partly Cloudy 41 5 35 1.7 79 79 WSW 8 13 29.76 1008 10 16 N/A
6:53 pm 18:53 Clear 39 3.9 34 1.1 82 82 SW 8 13 29.78 1009 10 16 N/A
7:12 pm 19:12 Mostly Cloudy 41 5 35 1.7 79 79 WSW 12 19 29.80 1009 10 16 N/A
7:22 pm 19:22 Partly Cloudy 41 5 35 1.7 79 79 WSW 8 13 29.80 1009 10 16 N/A
7:53 pm 19:53 Mostly Cloudy 40 4.4 35 1.7 83 83 WSW 7 11 29.79 1009 10 16 N/A
8:53 pm 20:53 Cloudy 41 5 35 1.7 79 79 WSW 6 9 29.81 1010 10 16 N/A
9:53 pm 21:53 Cloudy 41 5 35 1.7 79 79 WSW 10 17 29.82 1010 10 16 N/A
10:08 pm 22:08 Cloudy 41 5 36 2.2 82 82 WSW 9 15 29.84 1010 9 14 N/A
10:53 pm 22:53 Cloudy 41 5 35 1.7 79 79 WSW 9 15 29.84 1011 9 14 N/A
11:53 pm 23:53 Cloudy with Haze 39 3.9 34 1.1 82 82 WNW 10 17 29.87 1011 6 10 N/A

Powered by AerisWeather